Dewpoint
56 56 55 55 55 55 55 55 55 55 56 55 55 55 55 55 56 56 56 56 56 56 55 56 56 56 57 57 57 57 58 55 53 50 47 47 46 54 62 68 64 62 70 46 38 46 46 42 46 51 55 58 56 54 55 56 61 66 63 60 58 60 58 60 60 61 62 62 64 66 67 65 64 67 68 71 66 66 67 66 65 60 59 59 59 60 60 60
55 56 55 55 55 55 55 55 55 55 55 55 55 55 55 55 55 56 56 56 56 56 55 56 56 56 56 57 57 58 56 54 53 51 49 49 62 61 66 71 67 67 60 37 39 45 48 42 45 51 56 57 55 53 54 59 60 65 61 61 57 61 60 61 62 63 63 63 66 66 66 66 64 67 68 65 65 65 65 66 63 59 58 58 59 59 59 60
55 56 55 55 55 55 54 55 55 55 55 55 55 55 55 55 55 56 56 56 55 55 55 56 56 56 56 57 57 58 55 53 51 50 50 63 62 64 66 68 68 72 42 35 41 43 48 46 46 52 57 54 53 52 53 63 62 66 62 59 61 62 60 63 64 65 65 66 65 65 67 66 67 67 70 65 64 65 64 61 58 58 57 58 58 58 59 60
55 55 55 54 54 54 54 55 55 55 55 55 55 55 55 56 55 55 55 55 55 55 56 56 56 56 56 57 57 56 54 52 47 45 42 64 65 65 66 69 68 65 37 35 37 39 46 49 50 54 53 51 50 52 51 64 61 65 61 58 61 61 60 62 65 66 65 67 66 66 67 65 68 68 68 65 62 64 65 67 60 58 57 57 57 58 59 60
55 55 54 54 54 54 54 54 55 55 55 55 55 55 55 55 55 55 55 55 55 56 56 56 56 56 57 57 58 56 52 48 39 43 58 71 67 65 67 68 71 50 36 33 35 36 41 49 53 52 49 48 49 49 50 61 61 62 61 62 58 60 59 63 63 66 66 67 66 66 65 65 69 67 66 65 61 61 64 67 66 58 58 57 57 58 60 60
54 54 54 54 54 54 54 54 55 55 54 55 55 55 55 55 55 55 55 55 55 56 56 56 56 56 57 57 56 53 47 25 34 42 70 71 68 66 67 67 70 40 30 31 35 36 38 46 53 50 46 45 45 45 49 55 59 58 60 58 58 59 60 61 62 64 65 66 65 65 67 68 66 66 68 67 65 66 69 69 69 59 59 58 58 59 59 60
54 54 54 54 55 55 54 54 54 54 54 54 55 55 55 55 55 55 54 55 55 55 56 57 56 56 57 57 55 51 48 42 42 41 72 70 67 66 69 70 65 44 26 30 35 36 40 47 51 49 45 43 43 43 44 56 58 59 58 58 57 61 60 60 63 64 64 66 66 68 68 66 66 64 68 66 68 69 70 69 66 60 59 58 58 59 60 60
54 54 54 54 54 55 55 55 55 55 55 55 55 55 55 55 54 54 55 55 55 56 56 57 57 56 56 53 50 49 47 43 40 57 70 68 66 67 62 48 45 34 28 30 34 36 41 48 49 48 44 42 40 40 41 57 57 59 60 58 56 54 61 61 63 64 64 66 67 67 66 66 67 66 68 67 69 68 70 66 64 61 58 58 58 59 60 60
54 54 54 54 55 55 55 55 55 54 55 55 55 54 54 54 54 55 55 55 56 56 57 57 57 56 57 55 46 35 30 42 47 55 65 60 54 58 41 36 34 25 26 30 33 38 44 48 47 46 40 41 41 38 37 54 55 57 59 59 57 57 59 61 63 63 65 66 67 65 66 67 68 69 67 68 70 69 68 66 64 60 58 58 58 59 60 60
55 55 54 55 54 55 55 55 55 55 55 55 55 55 55 55 55 55 55 55 56 56 57 57 57 57 55 52 47 42 40 46 49 54 55 49 48 48 35 33 30 21 24 30 33 36 43 46 43 43 42 38 37 35 34 32 43 55 55 58 59 57 59 61 61 63 63 65 67 65 65 66 67 67 62 68 70 70 68 63 64 60 57 57 58 59 60 59
54 54 54 55 54 54 54 55 55 55 55 55 55 55 55 55 55 55 55 56 56 57 57 57 56 56 52 50 46 35 38 43 51 52 50 45 45 43 37 27 25 20 25 31 32 36 42 45 42 38 37 35 33 32 32 31 33 53 56 56 57 57 55 61 61 64 64 63 67 66 66 67 67 67 64 65 71 70 65 61 62 57 57 57 58 59 60 59
54 55 54 54 55 55 55 55 55 55 55 55 55 55 55 55 55 55 56 57 58 58 57 57 57 55 53 48 45 42 40 38 44 44 43 44 42 41 35 25 21 21 26 30 31 35 40 43 41 37 31 33 30 31 28 29 33 38 47 49 56 55 58 57 62 63 63 64 66 67 65 64 65 64 66 68 70 70 66 60 60 56 56 56 58 58 59 58
55 55 55 55 55 55 55 55 55 55 55 55 55 55 55 55 55 56 56 57 58 59 57 57 57 54 51 46 46 46 45 42 39 37 39 37 37 35 29 23 21 22 27 32 33 35 39 40 39 35 33 29 26 25 25 25 28 35 42 43 44 45 58 58 61 63 62 64 66 63 55 59 62 65 66 69 69 69 67 62 59 56 56 56 56 57 58 58
55 55 55 55 55 55 55 55 55 55 55 55 55 55 55 55 55 56 57 58 59 58 58 57 55 53 51 46 43 45 42 41 39 40 35 31 31 29 25 22 23 24 28 31 36 38 37 37 36 34 30 28 25 27 26 25 26 29 36 42 42 42 51 59 58 61 61 64 65 61 55 58 62 65 68 68 69 68 64 62 57 55 54 54 56 56 57 56
55 55 55 55 55 55 55 55 55 55 55 55 55 55 55 54 55 57 58 59 59 58 58 58 56 53 49 42 39 40 65 35 32 38 38 29 28 24 22 23 26 26 28 32 38 41 35 33 33 30 28 31 27 26 24 24 26 29 31 37 40 43 56 59 59 60 60 63 62 60 56 58 62 65 68 68 67 68 64 62 56 56 55 54 55 55 55 55
55 55 56 55 55 55 55 55 55 55 55 55 54 55 55 55 56 57 59 59 59 58 56 54 52 52 47 38 35 50 35 30 27 33 38 35 25 22 25 27 28 28 30 34 40 38 30 29 27 28 28 30 25 24 24 24 24 27 30 44 38 43 51 53 58 60 62 62 61 61 56 60 61 64 67 69 68 67 64 64 66 57 58 54 54 53 53 54
55 55 55 56 55 55 55 55 55 55 55 55 54 54 55 56 57 58 59 59 58 57 54 47 46 49 40 39 43 35 32 30 29 32 38 39 25 24 27 30 29 27 31 37 36 32 30 26 31 29 27 24 24 24 25 24 24 27 29 30 32 39 48 49 55 58 61 60 58 58 57 57 60 64 67 68 69 67 67 67 66 66 63 54 53 52 53 53
55 55 55 55 55 55 55 55 55 55 54 54 54 53 53 56 57 55 56 57 55 53 51 50 46 44 43 45 39 34 32 28 28 35 39 37 32 30 30 33 32 30 34 35 34 28 27 26 27 25 23 22 21 21 23 22 23 27 28 29 28 32 46 50 51 58 60 58 57 57 58 58 61 64 66 66 69 67 66 66 65 64 65 65 52 53 53 53
55 55 55 55 55 55 55 55 55 54 54 54 54 56 56 57 56 51 48 46 48 46 43 43 44 41 24 34 41 34 33 29 36 39 32 35 35 31 29 31 31 31 32 31 27 27 27 27 25 27 20 18 17 18 20 22 23 25 28 28 27 27 38 48 52 57 58 57 57 57 57 59 61 63 65 67 69 66 66 66 67 66 67 66 66 56 53 53
55 55 55 55 55 55 55 55 54 54 53 52 51 51 55 51 50 48 50 47 44 38 37 37 42 42 34 29 31 32 33 34 32 36 34 34 32 32 30 29 30 31 30 28 26 26 26 24 23 20 18 14 15 16 19 21 21 21 20 19 24 24 37 49 52 55 56 55 56 57 57 60 61 62 62 66 67 66 66 66 66 67 67 65 65 65 53 53
55 55 55 55 55 55 55 55 54 53 53 51 50 49 46 43 27 25 31 41 46 45 40 38 37 36 33 26 28 30 32 32 32 28 30 38 39 30 29 29 28 29 28 26 25 26 25 24 21 19 16 14 12 13 15 16 17 17 17 18 19 19 27 50 51 53 52 52 55 56 57 59 60 63 63 66 66 64 65 65 66 67 68 67 67 66 68 54
55 55 55 55 55 55 54 54 54 53 52 51 50 43 38 38 38 29 29 26 27 40 45 43 40 29 26 24 26 31 35 31 31 28 34 35 32 27 28 27 26 25 26 24 24 25 24 21 20 18 15 12 10 9 10 11 11 13 16 18 18 19 44 48 47 51 50 52 55 56 56 57 60 62 63 64 65 65 65 66 65 67 67 67 66 66 64 65
55 55 55 55 55 54 53 53 53 51 50 51 46 42 35 36 35 33 30 29 27 27 24 38 37 24 19 21 31 30 30 31 29 29 31 32 31 27 27 25 26 24 23 23 20 21 21 19 20 19 16 13 9 7 7 8 8 9 12 16 18 22 36 52 48 48 47 49 52 55 55 57 59 61 62 64 64 65 67 68 68 68 66 65 65 64 64 62
55 55 55 55 54 54 54 53 51 51 49 46 45 37 37 38 30 32 28 24 23 25 25 22 27 23 17 16 28 29 26 28 28 28 35 30 29 28 27 25 25 25 22 21 21 18 19 19 19 18 18 15 12 9 7 8 7 8 10 12 16 22 27 41 46 49 46 49 50 51 52 56 57 58 61 64 66 66 67 69 68 69 68 68 69 69 67 65
55 55 55 54 54 53 52 50 45 46 45 46 44 42 38 40 43 33 27 29 27 25 25 22 23 18 16 19 28 26 25 22 24 28 33 29 27 27 25 26 25 24 23 21 20 18 17 19 18 17 16 15 13 12 11 9 7 5 7 11 16 24 40 42 39 45 48 47 49 49 48 52 55 56 59 61 62 64 65 64 66 67 67 67 67 67 68 68
55 55 55 54 54 53 51 48 44 41 40 40 40 39 39 32 40 41 32 30 22 23 21 17 11 11 11 8 15 23 22 19 21 23 33 30 34 29 28 29 28 25 23 22 19 18 17 19 19 15 15 14 13 13 13 10 8 12 9 11 14 20 26 38 36 39 39 43 47 47 43 46 54 54 56 59 60 61 65 64 64 65 66 66 65 66 66 66
55 55 54 54 54 52 49 38 49 45 38 34 32 31 30 32 50 36 35 30 30 17 14 4 3 14 22 11 14 18 15 15 18 22 33 35 29 31 27 27 28 26 25 23 26 18 18 17 19 19 14 13 12 12 12 11 15 15 15 16 18 21 24 31 32 30 35 38 47 46 46 47 49 51 55 58 58 60 62 63 64 65 65 67 66 66 67 66
55 54 53 53 52 52 48 49 47 41 39 32 32 31 31 51 46 38 36 27 16 19 8 12 9 20 17 13 14 14 11 19 14 19 32 30 30 27 28 27 27 24 25 25 21 22 18 17 17 19 19 14 12 12 14 11 13 14 15 14 21 25 28 29 30 31 32 34 49 44 48 47 47 50 53 57 57 59 60 62 63 64 65 67 67 66 67 68
54 54 53 53 52 51 51 49 47 44 41 37 34 33 32 43 35 34 33 24 17 20 15 9 11 16 13 13 13 15 13 14 10 25 29 28 28 27 25 27 28 28 26 24 23 23 19 20 18 19 19 15 13 12 11 11 10 13 18 22 25 27 28 28 34 28 32 30 37 44 46 46 47 50 52 55 57 58 59 61 62 63 65 66 66 67 68 68
54 54 53 52 50 51 50 50 48 45 44 42 38 38 36 37 38 34 27 20 12 9 12 12 13 10 14 10 10 11 12 13 19 27 27 27 26 26 25 27 27 24 20 22 20 19 21 28 30 18 18 17 18 18 11 12 16 30 22 23 24 21 23 23 34 38 37 32 36 31 40 44 44 49 51 54 55 58 59 60 61 63 64 65 65 66 66 66
53 52 52 51 48 48 44 39 43 45 45 46 40 36 36 40 36 30 23 14 13 9 11 12 10 12 10 7 7 10 11 10 19 25 24 23 21 24 29 26 27 23 20 20 19 19 20 23 22 20 21 19 21 24 23 19 19 22 25 23 22 22 25 23 35 36 34 33 37 30 28 44 44 45 50 52 55 57 59 59 60 62 63 64 64 65 65 65
51 51 51 51 50 50 40 35 37 40 42 41 38 38 36 31 30 30 17 13 10 7 6 7 9 9 9 7 5 9 10 10 13 12 16 18 23 24 25 25 28 23 20 22 18 18 17 21 20 16 29 24 21 20 22 20 20 19 21 25 20 30 31 28 31 29 29 30 33 29 31 46 47 47 50 52 53 57 57 58 59 61 62 63 64 64 64 65
51 50 50 51 51 50 47 42 41 44 43 39 40 38 35 33 26 26 20 9 11 10 7 8 7 7 8 6 5 7 8 6 12 12 17 16 14 20 24 23 20 19 26 25 17 16 18 21 18 19 22 27 30 20 23 19 18 20 22 27 26 27 27 27 28 31 31 28 27 26 33 47 51 51 51 52 55 56 57 58 58 59 60 62 63 64 65 65
50 50 50 51 51 49 46 47 45 47 41 42 46 36 36 32 22 31 14 12 7 7 6 4 5 6 8 4 5 2 2 5 8 9 11 16 10 16 15 13 17 17 17 20 17 16 18 17 17 23 18 26 26 25 21 20 17 19 23 22 27 26 29 28 28 27 27 30 27 26 29 46 46 48 52 52 53 54 56 57 58 59 59 62 63 63 65 65
50 50 51 50 49 49 48 47 47 46 40 38 43 41 30 26 26 23 17 11 10 4 7 6 5 8 7 8 8 1 10 10 6 9 9 11 7 10 8 7 11 13 14 17 22 23 16 20 24 24 23 24 23 25 25 22 19 18 21 27 26 28 33 26 28 28 28 25 24 28 43 48 49 54 54 53 53 54 55 55 58 59 60 61 61 61 65 66
50 53 54 50 46 44 47 47 46 44 41 37 39 37 31 25 21 12 10 8 9 9 13 6 6 4 7 7 10 8 13 14 13 9 8 12 18 19 18 13 12 11 20 24 33 21 21 21 21 23 22 22 22 23 22 24 25 25 20 23 25 27 24 32 37 27 24 25 31 49 47 50 53 52 57 60 58 55 56 57 58 58 60 61 61 61 63 64
46 43 37 37 38 41 42 45 45 42 45 35 35 31 24 20 14 11 18 10 10 10 16 10 18 9 11 11 13 8 11 14 13 10 16 12 20 17 17 18 19 20 21 21 21 22 23 21 21 21 20 21 22 22 22 24 24 23 20 24 27 27 25 30 26 33 25 22 37 45 46 48 47 46 58 57 55 56 56 56 57 59 60 60 61 62 65 67
48 43 40 37 35 36 36 38 37 46 37 39 38 37 28 21 13 12 10 11 11 17 18 21 10 16 15 13 13 13 12 13 12 12 15 19 18 20 18 19 19 19 20 20 24 23 21 21 21 22 21 21 22 21 21 23 24 23 22 26 24 27 22 33 29 22 23 24 37 45 46 46 47 48 53 52 54 55 55 55 57 57 59 60 61 63 64 65
50 46 37 37 37 24 31 48 33 38 34 37 42 35 18 21 13 12 13 14 16 15 18 28 21 21 19 16 17 14 14 12 13 17 24 30 18 21 17 17 16 18 18 18 19 22 23 24 24 22 19 21 18 18 22 21 22 24 25 21 24 23 33 30 31 31 29 28 39 44 47 45 51 50 52 51 53 53 53 54 55 56 58 60 61 61 63 64
46 43 37 38 38 31 38 41 29 34 34 34 35 27 21 21 20 14 14 16 15 21 24 21 21 24 22 20 20 15 12 13 19 24 18 32 19 18 17 17 15 16 17 18 17 20 21 30 29 25 23 17 19 19 17 20 21 22 22 21 20 25 23 22 30 22 25 29 34 41 40 45 52 55 56 56 58 51 53 54 55 56 57 58 59 61 63 64
37 39 38 39 32 37 30 29 26 28 30 36 32 20 22 19 14 15 14 15 14 16 15 21 23 31 22 18 20 21 19 19 20 25 21 22 21 24 17 16 16 15 18 18 19 27 28 27 25 23 22 17 14 20 17 17 19 20 18 20 18 22 23 21 22 21 18 22 34 40 40 48 51 57 58 56 56 58 54 55 55 56 56 58 59 60 60 61
46 38 22 25 29 29 30 24 23 27 21 29 28 19 13 26 16 13 11 14 14 16 15 15 17 20 21 20 21 22 20 20 21 24 21 20 19 18 16 16 15 15 19 22 22 28 33 31 31 23 22 21 22 21 17 16 16 16 20 17 18 19 23 26 20 27 20 32 42 44 43 46 54 56 54 55 57 59 55 54 54 55 56 57 58 59 60 61
39 37 41 27 35 25 26 33 32 37 25 14 10 12 13 16 16 14 14 14 17 22 24 16 16 16 20 23 20 21 21 23 22 21 21 17 18 17 16 16 15 14 20 19 20 26 39 35 30 26 30 26 25 24 17 17 15 14 14 17 16 16 17 20 24 33 36 45 43 43 42 47 53 57 58 58 56 55 55 55 55 56 56 57 57 57 59 61
40 39 36 24 28 32 30 27 30 25 23 17 11 11 12 13 15 16 17 16 17 18 23 17 17 20 21 21 20 24 31 29 27 25 24 24 21 19 15 15 15 12 14 26 28 28 27 30 29 28 27 26 24 26 14 16 15 18 15 16 14 15 21 22 28 39 32 41 43 42 41 48 55 57 56 58 58 56 54 55 56 56 56 56 56 56 57 59
45 43 42 22 29 24 23 16 19 28 21 15 14 13 9 13 13 16 17 14 17 17 20 20 17 19 20 28 20 22 26 29 34 26 23 26 33 18 15 14 14 10 11 19 40 38 31 32 35 27 27 26 26 24 29 27 19 15 17 14 15 14 31 29 25 35 35 44 46 42 43 50 56 56 56 56 56 51 51 52 54 55 55 56 56 56 56 57
42 39 37 32 27 18 30 22 16 13 28 29 26 19 13 11 9 10 12 10 17 17 19 18 16 16 18 18 22 21 22 21 31 35 33 33 26 16 19 15 17 12 33 43 47 36 34 36 38 41 35 32 30 31 30 32 23 16 14 14 13 17 19 27 35 37 37 46 45 45 44 47 50 53 53 54 53 51 51 51 52 52 54 55 56 56 55 56
50 44 26 32 29 24 19 16 15 16 25 17 32 12 15 15 17 9 12 16 20 18 17 23 18 17 25 19 32 20 21 20 25 33 28 28 38 30 19 23 18 26 47 42 25 22 36 34 31 39 41 32 28 26 21 21 16 15 14 12 13 21 24 23 26 32 43 44 42 48 47 45 48 50 51 54 56 51 50 51 51 51 52 53 54 55 56 55
36 32 27 40 21 26 24 20 14 14 15 19 32 18 16 16 17 19 17 16 16 25 22 37 21 21 24 27 31 35 34 35 35 35 37 36 28 28 24 20 19 27 35 16 24 29 33 30 23 23 24 24 26 26 22 18 17 15 15 15 14 16 19 26 33 30 41 42 44 48 48 46 47 48 50 52 52 49 50 50 50 51 51 52 52 51 51 52
39 38 35 35 34 18 22 13 18 18 19 21 32 19 16 15 14 12 17 20 14 23 22 32 23 22 22 28 35 38 38 34 37 41 39 36 37 33 29 31 24 22 22 21 24 32 29 28 30 24 20 17 17 19 20 17 17 15 15 14 14 13 13 15 20 34 46 47 47 48 49 51 54 51 48 46 46 46 47 48 50 50 51 52 51 51 51 51
42 44 42 43 40 34 17 19 17 24 28 39 39 20 18 17 17 16 18 24 32 38 24 25 23 27 28 30 40 35 36 37 40 40 41 34 31 36 37 34 29 29 27 27 21 37 24 32 25 21 23 19 17 18 19 18 18 17 14 13 14 13 14 16 25 44 46 45 48 49 49 49 54 56 52 51 46 46 46 47 48 49 50 50 50 51 51 51
44 50 53 48 43 34 31 22 34 39 36 35 34 24 22 11 10 7 13 17 23 32 24 20 20 25 25 28 29 28 32 41 40 36 36 32 32 36 36 39 29 33 36 32 31 30 26 27 18 26 24 20 15 14 16 20 17 15 14 14 17 14 19 17 28 35 42 46 47 47 46 48 51 56 47 48 46 46 46 47 48 48 48 49 49 49 50 51
48 51 53 53 49 44 35 24 35 33 30 35 29 25 27 21 20 24 30 23 22 25 22 23 23 34 31 33 31 25 21 20 19 20 24 19 19 23 27 33 25 32 38 37 33 29 32 32 29 27 21 21 14 10 14 14 17 17 23 17 18 16 26 21 20 34 38 46 46 45 45 47 50 53 52 49 46 46 46 46 46 47 47 48 48 48 48 49